FW7674 Weather Reports


time (UTC)temp
C
wind
direction
speed
KPH
gust
KPH
rain 1hr
cm
rain 24hr
cm
rain mn
cm
humidity
%
barometer
mb
20260507143147 25 47 1.6 1.6 0.00 0.00 0.00 25 1014.6
20260507142642 24 273 0.0 1.6 0.00 0.00 0.00 26 1014.4
20260507142139 24 347 0.0 0.0 0.00 0.00 0.00 26 1014.6
20260507141635 24 181 1.6 1.6 0.00 0.00 0.00 26 1014.4
20260507141132 25 237 0.0 1.6 0.00 0.00 0.00 25 1014.3
20260507140628 24 289 0.0 0.0 0.00 0.00 0.00 24 1014.3
20260507140126 23 18 1.6 1.6 0.00 0.00 0.00 24 1014.3
20260507135623 23 13 1.6 1.6 0.00 0.00 0.00 24 1014.3
20260507135121 23 347 3.2 3.2 0.00 0.00 0.00 25 1014.3
20260507134617 23 306 1.6 1.6 0.00 0.00 0.00 25 1014.2
20260507134113 23 352 1.6 3.2 0.00 0.00 0.00 25 1014.3
20260507133609 23 3 3.2 3.2 0.00 0.00 0.00 25 1014.1
20260507133107 23 46 1.6 1.6 0.00 0.00 0.00 24 1014.2
20260507132603 22 329 3.2 3.2 0.00 0.00 0.00 25 1014.0
20260507132059 22 359 6.4 6.4 0.00 0.00 0.00 25 1013.9
20260507131556 22 1 3.2 3.2 0.00 0.00 0.00 25 1014.0
20260507131054 22 314 6.4 9.7 0.00 0.00 0.00 25 1014.0
20260507130550 22 0 3.2 4.8 0.00 0.00 0.00 25 1013.9
20260507130049 22 0 6.4 9.7 0.00 0.00 0.00 25 1013.7
20260507125547 22 330 6.4 9.7 0.00 0.00 0.00 26 1013.9
20260507125044 22 70 9.7 12.9 0.00 0.00 0.00 26 1013.7
20260507124540 22 15 6.4 9.7 0.00 0.00 0.00 26 1013.8
20260507124038 21 37 9.7 12.9 0.00 0.00 0.00 26 1013.9
20260507123536 21 1 11.3 12.9 0.00 0.00 0.00 26 1013.6
20260507123033 21 338 3.2 9.7 0.00 0.00 0.00 26 1013.4
20260507122528 21 342 3.2 4.8 0.00 0.00 0.00 26 1013.5
20260507122024 21 354 3.2 3.2 0.00 0.00 0.00 26 1013.6
20260507121520 21 32 11.3 12.9 0.00 0.00 0.00 26 1013.6
20260507121016 21 359 12.9 14.5 0.00 0.00 0.00 26 1013.6
20260507120512 21 23 0.0 3.2 0.00 0.00 0.00 27 1013.7
20260507120009 20 312 3.2 6.4 0.00 0.00 0.00 28 1013.6
20260507115505 18 325 3.2 3.2 0.00 0.00 0.00 30 1013.8
20260507115001 19 330 0.0 1.6 0.00 0.00 0.00 30 1013.8
20260507114457 19 14 4.8 4.8 0.00 0.00 0.00 29 1013.9
20260507113955 17 313 1.6 1.6 0.00 0.00 0.00 36 1014.0
20260507113452 16 254 1.6 1.6 0.00 0.00 0.00 39 1014.1
20260507112949 16 276 0.0 0.0 0.00 0.00 0.00 42 1013.9
20260507112447 16 274 0.0 0.0 0.00 0.00 0.00 40 1014.0
20260507111943 17 288 0.0 0.0 0.00 0.00 0.00 39 1014.0
20260507111441 16 296 0.0 1.6 0.00 0.00 0.00 38 1014.1
20260507110937 16 319 1.6 1.6 0.00 0.00 0.00 39 1014.2
20260507110433 16 293 0.0 0.0 0.00 0.00 0.00 41 1014.1
20260507105930 16 254 0.0 0.0 0.00 0.00 0.00 40 1014.3
20260507105427 16 278 0.0 0.0 0.00 0.00 0.00 40 1014.0
20260507104923 16 278 0.0 0.0 0.00 0.00 0.00 39 1014.1
20260507104420 17 279 0.0 0.0 0.00 0.00 0.00 38 1014.2
20260507103916 17 212 1.6 1.6 0.00 0.00 0.00 37 1014.5
20260507103413 17 224 1.6 1.6 0.00 0.00 0.00 37 1014.4
20260507102909 17 259 0.0 0.0 0.00 0.00 0.00 36 1014.4
20260507102406 17 293 0.0 0.0 0.00 0.00 0.00 38 1014.3
20260507101902 17 324 0.0 0.0 0.00 0.00 0.00 37 1014.5
20260507101357 17 354 0.0 0.0 0.00 0.00 0.00 40 1014.5
20260507100854 17 291 1.6 1.6 0.00 0.00 0.00 40 1014.5
20260507100352 17 282 0.0 0.0 0.00 0.00 0.00 40 1014.4
20260507095850 16 288 0.0 0.0 0.00 0.00 0.00 40 1014.5
20260507095346 16 285 0.0 0.0 0.00 0.00 0.00 41 1014.4
20260507094843 17 274 0.0 0.0 0.00 0.00 0.00 40 1014.7
20260507094339 17 287 0.0 0.0 0.00 0.00 0.00 37 1014.6
20260507093837 17 295 0.0 0.0 0.00 0.00 0.00 37 1014.4
20260507093335 17 290 0.0 0.0 0.00 0.00 0.00 39 1014.3
20260507092833 18 317 0.0 0.0 0.00 0.00 0.00 39 1014.5
20260507092329 17 315 0.0 1.6 0.00 0.00 0.00 40 1014.3
20260507091825 18 292 0.0 0.0 0.00 0.00 0.00 41 1014.3
20260507091322 17 306 0.0 0.0 0.00 0.00 0.00 43 1014.4
20260507090818 18 317 1.6 1.6 0.00 0.00 0.00 44 1014.5
20260507090314 18 311 0.0 1.6 0.00 0.00 0.00 45 1014.5
20260507085811 18 313 1.6 1.6 0.00 0.00 0.00 44 1014.6
20260507085308 17 318 1.6 1.6 0.00 0.00 0.00 43 1014.4
20260507084806 17 295 0.0 0.0 0.00 0.00 0.00 43 1014.4
20260507084301 18 280 0.0 0.0 0.00 0.00 0.00 41 1014.6
20260507083759 17 310 1.6 1.6 0.00 0.00 0.00 41 1014.6
20260507083255 18 280 0.0 0.0 0.00 0.00 0.00 42 1014.8
20260507082752 18 282 0.0 0.0 0.00 0.00 0.00 41 1014.6
20260507082247 18 276 0.0 0.0 0.00 0.00 0.00 41 1014.6
20260507081744 18 272 0.0 0.0 0.00 0.00 0.00 40 1014.6
20260507081240 18 275 0.0 0.0 0.00 0.00 0.00 41 1014.7
20260507080737 18 288 0.0 0.0 0.00 0.00 0.00 40 1014.7
20260507080233 18 295 0.0 0.0 0.00 0.00 0.00 40 1014.6
20260507075729 18 319 1.6 1.6 0.00 0.00 0.00 39 1014.6
20260507075225 18 318 1.6 1.6 0.00 0.00 0.00 37 1014.7
20260507074722 18 297 0.0 1.6 0.00 0.00 0.00 37 1014.7
20260507074220 18 276 0.0 0.0 0.00 0.00 0.00 36 1014.7
20260507073716 19 272 0.0 0.0 0.00 0.00 0.00 35 1014.6
20260507073213 19 273 0.0 0.0 0.00 0.00 0.00 35 1014.7
20260507072711 19 252 0.0 0.0 0.00 0.00 0.00 36 1014.8
20260507072208 19 311 0.0 0.0 0.00 0.00 0.00 37 1014.7
20260507071705 20 311 0.0 0.0 0.00 0.00 0.00 37 1014.7
20260507071201 20 311 0.0 0.0 0.00 0.00 0.00 36 1014.6
20260507070659 20 311 1.6 1.6 0.00 0.00 0.00 36 1014.6
20260507070155 20 309 1.6 1.6 0.00 0.00 0.00 36 1014.7
20260507065652 20 306 1.6 1.6 0.00 0.00 0.00 34 1014.7
20260507065149 20 306 0.0 0.0 0.00 0.00 0.00 32 1015.0
20260507064646 20 306 1.6 1.6 0.00 0.00 0.00 32 1014.8
20260507064145 21 282 0.0 0.0 0.00 0.00 0.00 28 1014.7
20260507063642 21 277 0.0 0.0 0.00 0.00 0.00 27 1014.7
20260507063139 21 272 0.0 0.0 0.00 0.00 0.00 27 1014.7
20260507062635 21 265 0.0 0.0 0.00 0.00 0.00 26 1014.8
20260507062133 22 263 0.0 0.0 0.00 0.00 0.00 26 1014.6
20260507061631 22 260 0.0 0.0 0.00 0.00 0.00 25 1014.6
20260507061129 22 257 0.0 0.0 0.00 0.00 0.00 25 1014.5
20260507060627 22 269 0.0 0.0 0.00 0.00 0.00 25 1014.5
20260507060123 22 257 0.0 0.0 0.00 0.00 0.00 26 1014.6
20260507055618 22 258 0.0 0.0 0.00 0.00 0.00 26 1014.6
20260507055114 22 240 1.6 1.6 0.00 0.00 0.00 25 1014.6
20260507054610 22 255 1.6 1.6 0.00 0.00 0.00 25 1014.8
20260507054108 22 219 1.6 1.6 0.00 0.00 0.00 25 1014.5
20260507053606 22 260 0.0 0.0 0.00 0.00 0.00 25 1014.7
20260507053104 22 253 0.0 0.0 0.00 0.00 0.00 25 1014.8
20260507052602 22 262 0.0 0.0 0.00 0.00 0.00 25 1014.6
20260507052058 22 258 0.0 0.0 0.00 0.00 0.00 25 1014.8
20260507051555 22 261 0.0 1.6 0.00 0.00 0.00 25 1014.7
20260507051052 22 262 0.0 0.0 0.00 0.00 0.00 26 1014.5
20260507050549 22 234 0.0 0.0 0.00 0.00 0.00 26 1014.7
20260507050045 21 262 0.0 0.0 0.00 0.00 0.00 28 1014.7
20260507045542 21 262 0.0 0.0 0.00 0.00 0.00 28 1014.6
20260507045039 22 261 0.0 0.0 0.00 0.00 0.00 28 1014.5
20260507044536 22 259 0.0 0.0 0.00 0.00 0.00 27 1014.4
20260507044033 22 258 0.0 0.0 0.00 0.00 0.00 26 1014.5
20260507043528 23 258 0.0 0.0 0.00 0.00 0.00 25 1014.3
20260507043026 23 258 0.0 0.0 0.00 0.00 0.00 25 1014.3
20260507042522 23 259 0.0 0.0 0.00 0.00 0.00 25 1014.2
20260507042017 23 255 0.0 0.0 0.00 0.00 0.00 24 1014.2
20260507041515 23 250 0.0 0.0 0.00 0.00 0.00 24 1014.3
20260507041012 23 260 0.0 0.0 0.00 0.00 0.00 24 1014.2
20260507040508 24 247 1.6 1.6 0.00 0.00 0.00 23 1014.2
20260507040004 24 249 0.0 0.0 0.00 0.00 0.00 23 1014.0
20260507035500 24 257 0.0 0.0 0.00 0.00 0.00 23 1013.9
20260507034957 24 264 0.0 0.0 0.00 0.00 0.00 23 1013.8
20260507034454 25 269 0.0 0.0 0.00 0.00 0.00 22 1013.8
20260507033952 25 264 1.6 1.6 0.00 0.00 0.00 22 1013.9
20260507033449 25 254 1.6 1.6 0.00 0.00 0.00 22 1013.7
20260507032946 25 264 0.0 1.6 0.00 0.00 0.00 22 1013.8
20260507032443 25 265 0.0 1.6 0.00 0.00 0.00 22 1013.5
20260507031939 25 266 1.6 1.6 0.00 0.00 0.00 22 1013.7
20260507031436 25 181 3.2 3.2 0.00 0.00 0.00 22 1013.4
20260507030933 25 247 0.0 1.6 0.00 0.00 0.00 22 1013.4
20260507030430 25 272 1.6 1.6 0.00 0.00 0.00 21 1013.3
20260507025927 25 241 1.6 1.6 0.00 0.00 0.00 21 1013.3
20260507025424 25 258 3.2 3.2 0.00 0.00 0.00 21 1013.3
20260507024922 26 300 4.8 6.4 0.00 0.00 0.00 21 1013.2
20260507024419 26 226 1.6 3.2 0.00 0.00 0.00 21 1013.0
20260507023915 26 244 4.8 4.8 0.00 0.00 0.00 21 1012.9
20260507023412 26 233 4.8 6.4 0.00 0.00 0.00 21 1013.0
20260507022909 26 251 3.2 4.8 0.00 0.00 0.00 21 1012.9
20260507022406 26 260 1.6 1.6 0.00 0.00 0.00 21 1013.0
20260507021901 26 241 3.2 3.2 0.00 0.00 0.00 21 1012.9
20260507021357 26 234 8.0 9.7 0.00 0.00 0.00 21 1012.9
20260507020855 26 263 1.6 1.6 0.00 0.00 0.00 21 1012.6
20260507020351 26 243 3.2 3.2 0.00 0.00 0.00 21 1012.7
20260507015848 26 197 6.4 6.4 0.00 0.00 0.00 20 1012.8
20260507015346 27 194 6.4 6.4 0.00 0.00 0.00 20 1012.9
20260507014844 27 210 3.2 3.2 0.00 0.00 0.00 20 1012.7
20260507014339 27 262 3.2 3.2 0.00 0.00 0.00 20 1012.8
20260507013836 27 276 6.4 9.7 0.00 0.00 0.00 20 1012.9
20260507013333 27 264 3.2 4.8 0.00 0.00 0.00 20 1012.6
20260507012831 27 275 4.8 4.8 0.00 0.00 0.00 20 1012.7
20260507012326 27 268 3.2 3.2 0.00 0.00 0.00 20 1012.8
20260507011824 27 277 1.6 1.6 0.00 0.00 0.00 20 1012.7
20260507011320 27 237 4.8 6.4 0.00 0.00 0.00 20 1012.7
20260507010820 27 243 6.4 6.4 0.00 0.00 0.00 20 1012.5
20260507010316 28 201 4.8 6.4 0.00 0.00 0.00 19 1012.7
20260507005813 27 281 4.8 4.8 0.00 0.00 0.00 20 1012.5
20260507005310 28 286 3.2 3.2 0.00 0.00 0.00 20 1012.6
20260507004806 28 255 3.2 3.2 0.00 0.00 0.00 19 1012.5
20260507004304 28 268 4.8 4.8 0.00 0.00 0.00 19 1012.7
20260507003801 28 244 3.2 4.8 0.00 0.00 0.00 20 1012.7
20260507003256 28 242 4.8 6.4 0.00 0.00 0.00 19 1012.6
20260507002752 28 244 3.2 4.8 0.00 0.00 0.00 19 1012.5
20260507002248 28 228 3.2 4.8 0.00 0.00 0.00 19 1012.5
20260507001745 28 229 8.0 9.7 0.00 0.00 0.00 19 1012.5
20260507001242 28 328 4.8 4.8 0.00 0.00 0.00 19 1012.7
20260507000739 28 261 4.8 6.4 0.00 0.00 0.00 19 1012.6
20260507000235 28 261 6.4 9.7 0.00 0.00 0.00 19 1012.4
20260506235731 28 234 4.8 9.7 0.00 0.00 0.00 19 1012.5
20260506235227 28 251 3.2 4.8 0.00 0.00 0.00 19 1012.7
20260506234724 28 288 8.0 9.7 0.00 0.00 0.00 19 1012.5
20260506234221 28 293 3.2 3.2 0.00 0.00 0.00 20 1012.8
20260506233719 28 191 1.6 3.2 0.00 0.00 0.00 19 1012.7
20260506233215 28 252 6.4 6.4 0.00 0.00 0.00 19 1012.9
20260506232711 28 199 3.2 3.2 0.00 0.00 0.00 20 1012.8
20260506232206 28 181 1.6 3.2 0.00 0.00 0.00 19 1013.0
20260506231704 28 267 3.2 4.8 0.00 0.00 0.00 19 1013.0
20260506231203 28 235 3.2 4.8 0.00 0.00 0.00 20 1012.9
20260506230659 28 238 8.0 11.3 0.00 0.00 0.00 19 1013.0
20260506230156 28 289 3.2 3.2 0.00 0.00 0.00 19 1013.1
20260506225652 28 272 6.4 9.7 0.00 0.00 0.00 19 1013.1
20260506225149 28 277 4.8 6.4 0.00 0.00 0.00 19 1013.3
20260506224645 28 210 6.4 6.4 0.00 0.00 0.00 19 1013.3
20260506224142 28 190 3.2 4.8 0.00 0.00 0.00 20 1013.2
20260506223639 28 261 4.8 4.8 0.00 0.00 0.00 19 1013.5
20260506223135 27 272 6.4 6.4 0.00 0.00 0.00 20 1013.5
20260506222632 27 177 6.4 9.7 0.00 0.00 0.00 20 1013.5
20260506222128 28 217 4.8 4.8 0.00 0.00 0.00 20 1013.6
20260506221626 28 285 0.0 0.0 0.00 0.00 0.00 19 1013.8
20260506221124 28 221 6.4 9.7 0.00 0.00 0.00 20 1013.8
20260506220620 28 278 0.0 0.0 0.00 0.00 0.00 20 1013.6
20260506220115 28 177 8.0 11.3 0.00 0.00 0.00 20 1013.7
20260506215612 28 243 6.4 6.4 0.00 0.00 0.00 20 1013.7
20260506215108 28 249 8.0 9.7 0.00 0.00 0.00 20 1013.8
20260506214605 28 279 9.7 16.1 0.00 0.00 0.00 20 1013.9
20260506214102 28 151 3.2 3.2 0.00 0.00 0.00 20 1014.0
20260506213600 27 129 4.8 6.4 0.00 0.00 0.00 20 1014.1
20260506213057 27 206 4.8 6.4 0.00 0.00 0.00 21 1014.2
20260506212554 28 163 4.8 9.7 0.00 0.00 0.00 20 1014.2
20260506212049 27 244 4.8 6.4 0.00 0.00 0.00 20 1014.2
20260506211545 27 207 6.4 6.4 0.00 0.00 0.00 20 1014.3
20260506211042 27 4 1.6 1.6 0.00 0.00 0.00 20 1014.6
20260506210539 27 223 0.0 0.0 0.00 0.00 0.00 20 1014.7
20260506210035 26 141 6.4 9.7 0.00 0.00 0.00 21 1014.6
20260506205532 26 37 3.2 4.8 0.00 0.00 0.00 21 1014.8
20260506205027 27 264 8.0 11.3 0.00 0.00 0.00 21 1014.8
20260506204526 26 304 1.6 1.6 0.00 0.00 0.00 21 1014.8
20260506204022 27 141 4.8 4.8 0.00 0.00 0.00 20 1015.3
20260506203521 27 204 4.8 6.4 0.00 0.00 0.00 20 1015.0
20260506203017 26 60 4.8 4.8 0.00 0.00 0.00 21 1015.2
20260506202514 26 242 4.8 4.8 0.00 0.00 0.00 21 1015.2
20260506202010 26 216 6.4 9.7 0.00 0.00 0.00 21 1015.2
20260506201508 27 242 6.4 6.4 0.00 0.00 0.00 20 1015.4
20260506201004 27 259 4.8 4.8 0.00 0.00 0.00 20 1015.2
20260506200501 26 249 3.2 4.8 0.00 0.00 0.00 21 1015.3
20260506195957 26 212 3.2 3.2 0.00 0.00 0.00 21 1015.4
20260506195455 26 341 4.8 9.7 0.00 0.00 0.00 21 1015.5
20260506194950 26 0 4.8 6.4 0.00 0.00 0.00 22 1015.5
20260506194448 26 300 8.0 11.3 0.00 0.00 0.00 22 1015.6
20260506193939 26 233 3.2 3.2 0.00 0.00 0.00 22 1015.7
20260506193436 27 297 4.8 6.4 0.00 0.00 0.00 21 1015.6
20260506192933 26 109 6.4 6.4 0.00 0.00 0.00 22 1015.5
20260506192430 25 254 1.6 3.2 0.00 0.00 0.00 22 1015.6
20260506191926 25 241 8.0 11.3 0.00 0.00 0.00 22 1015.9
20260506191423 25 266 4.8 9.7 0.00 0.00 0.00 23 1015.8
20260506190920 25 255 4.8 4.8 0.00 0.00 0.00 22 1015.8
20260506190416 26 211 3.2 4.8 0.00 0.00 0.00 23 1016.0
20260506185913 25 180 3.2 3.2 0.00 0.00 0.00 23 1016.1
20260506185410 25 247 4.8 4.8 0.00 0.00 0.00 23 1015.9
20260506184908 25 249 8.0 9.7 0.00 0.00 0.00 24 1016.1
20260506184404 25 216 3.2 4.8 0.00 0.00 0.00 23 1016.3
20260506183902 25 271 1.6 3.2 0.00 0.00 0.00 23 1016.1
20260506183357 25 266 3.2 3.2 0.00 0.00 0.00 23 1016.3
20260506182854 25 273 6.4 9.7 0.00 0.00 0.00 24 1016.4
20260506182351 26 245 9.7 12.9 0.00 0.00 0.00 23 1016.5
20260506181848 25 228 4.8 4.8 0.00 0.00 0.00 24 1016.4
20260506181346 25 348 3.2 3.2 0.00 0.00 0.00 24 1016.4
20260506180843 25 308 3.2 3.2 0.00 0.00 0.00 24 1016.5
20260506180339 23 197 1.6 3.2 0.00 0.00 0.00 25 1016.6
20260506175836 23 250 1.6 1.6 0.00 0.00 0.00 27 1016.6
20260506175332 24 263 6.4 9.7 0.00 0.00 0.00 26 1016.6
20260506174824 23 296 3.2 4.8 0.00 0.00 0.00 26 1016.6
20260506174321 23 74 1.6 1.6 0.00 0.00 0.00 27 1016.8
20260506173819 23 321 3.2 3.2 0.00 0.00 0.00 26 1016.8
20260506173316 23 292 6.4 6.4 0.00 0.00 0.00 26 1016.8
20260506172813 23 323 3.2 3.2 0.00 0.00 0.00 27 1016.8
20260506172309 23 271 3.2 3.2 0.00 0.00 0.00 28 1016.7
20260506171806 23 243 3.2 4.8 0.00 0.00 0.00 28 1016.7
20260506171303 22 260 3.2 4.8 0.00 0.00 0.00 29 1016.8
20260506170800 22 356 1.6 3.2 0.00 0.00 0.00 29 1016.6
20260506170257 23 266 4.8 6.4 0.00 0.00 0.00 28 1016.9
20260506165755 23 262 3.2 3.2 0.00 0.00 0.00 29 1016.7
20260506165252 23 278 3.2 3.2 0.00 0.00 0.00 28 1016.7
20260506164749 22 204 0.0 1.6 0.00 0.00 0.00 28 1016.8
20260506164246 22 290 1.6 3.2 0.00 0.00 0.00 28 1016.6
20260506163743 22 294 4.8 6.4 0.00 0.00 0.00 29 1016.7
20260506163237 22 270 6.4 6.4 0.00 0.00 0.00 29 1016.7
20260506162734 22 304 1.6 3.2 0.00 0.00 0.00 29 1016.5
20260506162232 22 278 0.0 0.0 0.00 0.00 0.00 29 1016.5
20260506161729 22 152 0.0 1.6 0.00 0.00 0.00 29 1016.5
20260506161226 21 261 4.8 4.8 0.00 0.00 0.00 30 1016.6
20260506160724 21 280 1.6 1.6 0.00 0.00 0.00 30 1016.5
20260506160220 21 220 1.6 3.2 0.00 0.00 0.00 31 1016.4
20260506155718 21 273 0.0 1.6 0.00 0.00 0.00 31 1016.5
20260506155215 21 196 3.2 4.8 0.00 0.00 0.00 31 1016.4
20260506153317 20 305 0.0 0.0 0.00 0.00 0.00 31 1016.5
20260506152814 20 258 0.0 1.6 0.00 0.00 0.00 32 1016.5
20260506152311 21 245 3.2 3.2 0.00 0.00 0.00 31 1016.6
20260506151810 20 296 0.0 0.0 0.00 0.00 0.00 32 1016.5
20260506151306 19 299 0.0 1.6 0.00 0.00 0.00 34 1016.7
20260506150803 19 268 1.6 3.2 0.00 0.00 0.00 34 1016.7
20260506150304 18 292 3.2 3.2 0.00 0.00 0.00 34 1016.7
20260506145757 19 237 3.2 3.2 0.00 0.00 0.00 34 1016.7
20260506145253 18 278 0.0 1.6 0.00 0.00 0.00 35 1016.4
20260506144751 18 302 1.6 1.6 0.00 0.00 0.00 36 1016.6
20260506144248 17 291 0.0 1.6 0.00 0.00 0.00 36 1016.5
20260506143745 17 253 1.6 1.6 0.00 0.00 0.00 36 1016.6